Quick links : Home Page : Contact Us : Index : Site Map : Search Site : Ephemerides


(162567) 2000 RW37

Orbital Elements

The following orbital elements are taken from MPO123124
(162567) 2000 RW37
Epoch 2007 Oct. 27.0 TT = JDT 2454400.5                 MPC
M 307.39919              (2000.0)            P               Q
n   0.70646344     Peri.  133.22430     -0.29569918     -0.94934892
a   1.2485605      Node   333.41627     +0.79309946     -0.18194734
e   0.2507726      Incl.   13.74069     +0.53249905     -0.25618704
P   1.40           H   20.0           G   0.15           U   1
From 154 observations at 3 oppositions, 2000-2007, mean residual 0".53.
An explanation of the orbital elements is available.

These orbital elements are also available in forms suitable for loading into a number of popular planetarium-type software programs.


Ephemeris

The following ephemeris is at intervals of five days. A daily ephemeris covering the same time interval is also available.

Personalized ephemerides for this (and other) objects may be generated using the Minor Planet & Comet Ephemeris Service.

Date    TT    R. A. (2000) Decl.     Delta      r     Elong.  Phase     V
2008 07 13    13 24.66   -32 51.5    0.917    1.488   100.5    42.2    22.3

Back to Observable Critical-List Minor Planets

MPC

Valid HTML 4.01!